NOAA NWS Hourly Roundups by Site

Regional Weather Roundup for Green Bay, WI

To Select Another Site Choose from List

Select Site:  

000
ASUS43 KGRB 060111
RWRGRB

NORTH-CENTRAL AND NORTHEAST WISCONSIN REGIONAL WEATHER ROUNDUP
NATIONAL WEATHER SERVICE GREEN BAY WI
800 PM CDT TUE JUL 05 2022

WIZ005-009-010>012-018-019-060200-
NORTH CENTRAL WISCONSIN

CITY           SKY/WX    TMP DP  RH WIND       PRES   REMARKS
IRONWOOD       CLOUDY    57  56  96 NE3       29.96F
MANITOWISH WTR CLOUDY    67  62  85 N8        29.94F
ARBOR VITAE    NOT AVBL
EAGLE RIVER    MOCLDY    68  60  74 N9        29.92F
LAND O LAKES   CLOUDY    67  61  80 N9        29.97F
RHINELANDER    MOCLDY    72  63  73 N6        29.91F
PHILLIPS       CLOUDY    71  64  79 NE9G17    29.90S
ANTIGO         MOCLDY    75  67  76 N14       29.89S
TOMAHAWK       CLOUDY    73  64  73 N5        29.91S
MERRILL        CLOUDY    77  66  69 NE10G17   29.89R
$$

WIZ013-073-060200-
NORTHEAST WISCONSIN

CITY           SKY/WX    TMP DP  RH WIND       PRES   REMARKS
IRON MOUNTAIN  MOCLDY    70  64  81 E9        29.90S
MARINETTE      CLOUDY    70  66  87 E13       29.90R
OCONTO         MOCLDY    75  70  85 NE7       29.86R
$$

WIZ017-030-035>037-045-060200-
CENTRAL WISCONSIN

CITY           SKY/WX    TMP DP  RH WIND       PRES   REMARKS
MEDFORD        CLOUDY    76  67  74 NE12      29.91R
WAUSAU         CLOUDY    83  67  58 CALM      29.87R
MOSINEE        MOCLDY    79  70  73 E3        29.89R
MARSHFIELD     CLOUDY    80  69  69 NE5       29.87R
WISC RAPIDS    CLOUDY    83  69  62 NE7       29.86R
STEVENS POINT  CLOUDY    81  66  60 CALM      29.87R
WAUPACA        CLOUDY    82  72  71 NE3       29.85R
SHAWANO        MOCLDY    80  73  77 CALM      29.84F
CLINTONVILLE   NOT AVBL
WAUTOMA        CLOUDY    80  74  81 E3        29.86R
$$

WIZ038-039-048-051-060200-
FOX VALLEY

CITY           SKY/WX    TMP DP  RH WIND       PRES   REMARKS
NWS GREEN BAY  MOCLDY    80  70  71 E5        29.84F
APPLETON       PTCLDY    77  70  78 SE7       29.84F
OSHKOSH        CLOUDY    76  69  79 E10       29.85S
FOND DU LAC    CLOUDY    77  67  71 E10       29.87R
$$

WIZ022-050-052-060200-
EAST CENTRAL WISCONSIN

CITY           SKY/WX    TMP DP  RH WIND       PRES   REMARKS
EPHRAIM        CLOUDY    69  65  88 NE9       29.89F
WASHINGTON ISL CLOUDY    66  66 100 NE12G17   29.90S
STURGEON BAY   PTCLDY    73  68  84 E8        29.90R
MANITOWOC      MOCLDY    67  64  90 CALM      29.88F
SHEBOYGAN      MOCLDY    71  66  84 E3        29.88F
$$

LMZ563-521-522-541>543-060200-
LAKESHORE

STATION/POSITION TIME  TEMP    WIND        PRES    VSBY  WAVE
                       AIR SEA DIR/SP/G                  HT/PER
                 (UTC) (F)     (DEG/KT/KT) (MB)    (MI)  (FT/S)
SHEBOYGAN LKSHOR 0100   65      60/  1/  2 1012.0R
KEWAUNEE LKSHORE 0024          180/  7/  9 1010.3
NORTHPORT PIER   0040   69     360/ 11/ 14 1013.2S
N MID LAKE BUOY  0050   62 61  360/  4/  4 1012.3R         1/ 5
GREEN BAY WEST   0024   80     140/  4/  6 1009.7
MENOMINEE LKSHOR 0024   67 67   30/ 19/ 21 1011.0
$$


 

View Past Reports for Green Bay, WI.

Products Courtesy of NOAA-NWS
NWS Information Parsing Script by Ken True at Saratoga Weather - Script by SE Lincoln Weather.